This demonstration page uses our WeatherBlox Daily Observations layout. Learn more.

Left ArrowRight Arrow

31.31129, -92.44514

Hourly Observations for December 17, 2021

Temp ( °F °C ) Dew Point ( °F °C ) Humidity (%) Winds ( mph kmh ) Pressure ( in mb ) Visibility ( mi km ) Precip ( " mm )
12:53 am 00:53 Cloudy with Mist and Fog 69 20.6 67 19.4 93 93 S 8 13 30.06 1018 6 10 0.00 0.00
1:44 am 01:44 Cloudy 70 21.1 67 19.4 90 90 S 7 11 30.05 1018 7 11 0.00 0.00
1:53 am 01:53 Cloudy 70 21.1 67 19.4 90 90 S 6 9 30.06 1018 7 11 0.00 0.00
2:53 am 02:53 Cloudy 69 20.6 66 18.9 90 90 SSE 7 11 30.06 1018 7 11 0.00 0.00
3:53 am 03:53 Mostly Cloudy 69 20.6 66 18.9 90 90 S 7 11 30.06 1018 10 16 0.00 0.00
4:15 am 04:15 Partly Cloudy 68 20 65 18.3 90 90 SSE 7 11 30.05 1018 9 14 0.00 0.00
4:53 am 04:53 Mostly Cloudy 67 19.4 65 18.3 93 93 SSE 6 9 30.06 1018 8 13 0.00 0.00
5:45 am 05:45 Partly Cloudy 68 20 66 18.9 93 93 SE 8 13 30.06 1018 8 13 0.00 0.00
5:53 am 05:53 Mostly Cloudy 68 20 65 18.3 90 90 SE 8 13 30.06 1018 8 13 0.00 0.00
6:05 am 06:05 Mostly Cloudy 68 20 66 18.9 93 93 SE 8 13 30.06 1018 8 13 0.00 0.00
6:53 am 06:53 Cloudy with Mist and Fog 69 20.6 67 19.4 93 93 SSE 9 15 30.07 1018 5 8 0.00 0.00
7:17 am 07:17 Cloudy with Mist and Fog 69 20.6 67 19.4 93 93 SE 8 13 30.06 1018 4 6 0.00 0.00
7:53 am 07:53 Cloudy with Mist and Fog 69 20.6 67 19.4 93 93 SE 7 11 30.07 1018 5 8 0.00 0.00
8:53 am 08:53 Cloudy with Mist and Fog 70 21.1 67 19.4 90 90 SSE 10 17 30.08 1019 4 6 0.00 0.00
9:35 am 09:35 Cloudy 71 21.7 66 18.9 84 84 SSE 9 15 30.08 1019 8 13 0.00 0.00
9:53 am 09:53 Cloudy 71 21.7 66 18.9 84 84 SE 13 20 30.09 1019 8 13 0.00 0.00
10:01 am 10:01 Mostly Cloudy 72 22.2 66 18.9 82 82 SSE 12 19 30.09 1019 9 14 0.00 0.00
10:50 am 10:50 Partly Cloudy 73 23 66 19 78 78 SSE 9 15 30.08 1019 10 16 0.00 0.00
10:53 am 10:53 Partly Cloudy 73 22.8 65 18.3 76 76 SSE 10 17 30.09 1019 10 16 0.00 0.00
11:02 am 11:02 Mostly Cloudy 73 22.8 66 18.9 79 79 SE 8 13 30.08 1019 10 16 0.00 0.00
11:53 am 11:53 Partly Cloudy 74 23.3 66 18.9 76 76 SE 10 17 30.06 1018 10 16 0.00 0.00
12:53 pm 12:53 Mostly Cloudy 76 24.4 66 18.9 72 72 SE 12 19 30.02 1017 10 16 0.00 0.00
1:53 pm 13:53 Mostly Sunny 76 24.4 65 18.3 69 69 SE 12 19 30.00 1016 10 16 0.00 0.00
2:53 pm 14:53 Sunny 74 23.3 64 17.8 71 71 S 9 15 29.99 1016 10 16 0.00 0.00
3:53 pm 15:53 Sunny 75 23.9 64 17.8 69 69 S 6 9 29.98 1015 10 16 0.00 0.00
4:53 pm 16:53 Sunny 71 21.7 63 17.2 76 76 S 5 7 29.99 1016 10 16 0.00 0.00
5:53 pm 17:53 Clear 70 21.1 62 16.7 76 76 Calm 30.00 1016 10 16 0.00 0.00
6:53 pm 18:53 Clear 67 19.4 62 16.7 84 84 Calm 30.00 1016 10 16 0.00 0.00
7:53 pm 19:53 Clear 66 18.9 61 16.1 84 84 ESE 5 7 29.99 1016 10 16 0.00 0.00
8:53 pm 20:53 Clear 65 18.3 61 16.1 87 87 ESE 3 6 30.00 1016 9 14 0.00 0.00
9:53 pm 21:53 Clear 65 18.3 61 16.1 87 87 ESE 5 7 30.00 1016 9 14 0.00 0.00
10:53 pm 22:53 Clear 64 17.8 61 16.1 90 90 SSE 3 6 30.00 1016 7 11 0.00 0.00
11:53 pm 23:53 Mostly Clear 64 17.8 61 16.1 90 90 SE 3 6 30.00 1016 7 11 0.00 0.00

Powered by AerisWeather